Year,Month,Day,Hour,Minute,Value (Times are PST for temperature in C)
2006,07,03,00,00,19.70
2006,07,03,00,01,19.70
2006,07,03,00,02,19.70
2006,07,03,00,03,19.70
2006,07,03,00,04,19.80
2006,07,03,00,05,19.90
2006,07,03,00,06,19.90
2006,07,03,00,07,19.90
2006,07,03,00,08,20.00
2006,07,03,00,09,20.10
2006,07,03,00,10,20.10
2006,07,03,00,11,20.10
2006,07,03,00,12,20.10
2006,07,03,00,13,20.10
2006,07,03,00,14,20.00
2006,07,03,00,15,19.90
2006,07,03,00,16,19.90
2006,07,03,00,17,19.70
2006,07,03,00,18,19.70
2006,07,03,00,19,19.60
2006,07,03,00,20,19.60
2006,07,03,00,21,19.60
2006,07,03,00,22,19.60
2006,07,03,00,23,19.60
2006,07,03,00,24,19.50
2006,07,03,00,25,19.50
2006,07,03,00,26,19.50
2006,07,03,00,27,19.50
2006,07,03,00,28,19.50
2006,07,03,00,29,19.60
2006,07,03,00,30,19.60
2006,07,03,00,31,19.60
2006,07,03,00,32,19.60
2006,07,03,00,33,19.60
2006,07,03,00,34,19.50
2006,07,03,00,35,19.30
2006,07,03,00,36,19.20
2006,07,03,00,37,19.10
2006,07,03,00,38,19.00
2006,07,03,00,39,18.80
2006,07,03,00,40,18.60
2006,07,03,00,41,18.50
2006,07,03,00,42,18.30
2006,07,03,00,43,18.20
2006,07,03,00,44,18.00
2006,07,03,00,45,17.90
2006,07,03,00,46,17.80
2006,07,03,00,47,17.60
2006,07,03,00,48,17.50
2006,07,03,00,49,17.50
2006,07,03,00,50,17.40
2006,07,03,00,51,17.30
2006,07,03,00,52,17.30
2006,07,03,00,53,17.30
2006,07,03,00,54,17.30
2006,07,03,00,55,17.30
2006,07,03,00,56,17.20
2006,07,03,00,57,17.20
2006,07,03,00,58,17.10
2006,07,03,00,59,17.10
2006,07,03,01,00,17.10
2006,07,03,01,01,17.00
2006,07,03,01,02,16.90
2006,07,03,01,03,16.90
2006,07,03,01,04,16.80
2006,07,03,01,05,16.80
2006,07,03,01,06,16.80
2006,07,03,01,07,16.80
2006,07,03,01,08,16.70
2006,07,03,01,09,16.70
2006,07,03,01,10,16.70
2006,07,03,01,11,16.70
2006,07,03,01,12,16.70
2006,07,03,01,13,16.70
2006,07,03,01,14,16.70
2006,07,03,01,15,16.70
2006,07,03,01,16,16.70
2006,07,03,01,17,16.70
2006,07,03,01,18,16.70
2006,07,03,01,19,16.70
2006,07,03,01,20,16.70
2006,07,03,01,21,16.60
2006,07,03,01,22,16.60
2006,07,03,01,23,16.60
2006,07,03,01,24,16.60
2006,07,03,01,25,16.60
2006,07,03,01,26,16.50
2006,07,03,01,27,16.40
2006,07,03,01,28,16.40
2006,07,03,01,29,16.40
2006,07,03,01,30,16.40
2006,07,03,01,31,16.40
2006,07,03,01,32,16.40
2006,07,03,01,33,16.40
2006,07,03,01,34,16.40
2006,07,03,01,35,16.30
2006,07,03,01,36,16.30
2006,07,03,01,37,16.30
2006,07,03,01,38,16.30
2006,07,03,01,39,16.30
2006,07,03,01,40,16.20
2006,07,03,01,41,16.20
2006,07,03,01,42,16.20
2006,07,03,01,43,16.20
2006,07,03,01,44,16.20
2006,07,03,01,45,16.20
2006,07,03,01,46,16.20
2006,07,03,01,47,16.20
2006,07,03,01,48,16.20
2006,07,03,01,49,16.20
2006,07,03,01,50,16.20
2006,07,03,01,51,16.20
2006,07,03,01,52,16.30
2006,07,03,01,53,16.30
2006,07,03,01,54,16.30
2006,07,03,01,55,16.40
2006,07,03,01,56,16.40
2006,07,03,01,57,16.40
2006,07,03,01,58,16.40
2006,07,03,01,59,16.50
2006,07,03,02,00,16.60
2006,07,03,02,01,16.60
2006,07,03,02,02,16.70
2006,07,03,02,03,16.70
2006,07,03,02,04,16.70
2006,07,03,02,05,16.70
2006,07,03,02,06,16.80
2006,07,03,02,07,16.80
2006,07,03,02,08,16.80
2006,07,03,02,09,16.90
2006,07,03,02,10,16.90
2006,07,03,02,11,16.90
2006,07,03,02,12,16.90
2006,07,03,02,13,16.90
2006,07,03,02,14,16.80
2006,07,03,02,15,16.80
2006,07,03,02,16,16.70
2006,07,03,02,17,16.70
2006,07,03,02,18,16.70
2006,07,03,02,19,16.70
2006,07,03,02,20,16.60
2006,07,03,02,21,16.60
2006,07,03,02,22,16.60
2006,07,03,02,23,16.60
2006,07,03,02,24,16.50
2006,07,03,02,25,16.40
2006,07,03,02,26,16.40
2006,07,03,02,27,16.40
2006,07,03,02,28,16.40
2006,07,03,02,29,16.40
2006,07,03,02,30,16.40
2006,07,03,02,31,16.40
2006,07,03,02,32,16.40
2006,07,03,02,33,16.40
2006,07,03,02,34,16.40
2006,07,03,02,35,16.40
2006,07,03,02,36,16.30
2006,07,03,02,37,16.30
2006,07,03,02,38,16.30
2006,07,03,02,39,16.20
2006,07,03,02,40,16.20
2006,07,03,02,41,16.20
2006,07,03,02,42,16.10
2006,07,03,02,43,16.10
2006,07,03,02,44,16.10
2006,07,03,02,45,16.00
2006,07,03,02,46,15.90
2006,07,03,02,47,15.90
2006,07,03,02,48,15.80
2006,07,03,02,49,15.80
2006,07,03,02,50,15.80
2006,07,03,02,51,15.80
2006,07,03,02,52,15.80
2006,07,03,02,53,15.70
2006,07,03,02,54,15.70
2006,07,03,02,55,15.70
2006,07,03,02,56,15.60
2006,07,03,02,57,15.60
2006,07,03,02,58,15.50
2006,07,03,02,59,15.50
2006,07,03,03,00,15.50
2006,07,03,03,01,15.40
2006,07,03,03,02,15.30
2006,07,03,03,03,15.30
2006,07,03,03,04,15.30
2006,07,03,03,05,15.20
2006,07,03,03,06,15.20
2006,07,03,03,07,15.10
2006,07,03,03,08,15.10
2006,07,03,03,09,15.10
2006,07,03,03,10,15.00
2006,07,03,03,11,15.00
2006,07,03,03,12,14.90
2006,07,03,03,13,14.90
2006,07,03,03,14,14.90
2006,07,03,03,15,14.80
2006,07,03,03,16,14.80
2006,07,03,03,17,14.80
2006,07,03,03,18,14.80
2006,07,03,03,19,14.80
2006,07,03,03,20,14.80
2006,07,03,03,21,14.70
2006,07,03,03,22,14.70
2006,07,03,03,23,14.70
2006,07,03,03,24,14.70
2006,07,03,03,25,14.70
2006,07,03,03,26,14.70
2006,07,03,03,27,14.70
2006,07,03,03,28,14.70
2006,07,03,03,29,14.70
2006,07,03,03,30,14.60
2006,07,03,03,31,14.60
2006,07,03,03,32,14.60
2006,07,03,03,33,14.60
2006,07,03,03,34,14.60
2006,07,03,03,35,14.60
2006,07,03,03,36,14.60
2006,07,03,03,37,14.60
2006,07,03,03,38,14.60
2006,07,03,03,39,14.60
2006,07,03,03,40,14.60
2006,07,03,03,41,14.60
2006,07,03,03,42,14.60
2006,07,03,03,43,14.70
2006,07,03,03,44,14.70
2006,07,03,03,45,14.70
2006,07,03,03,46,14.60
2006,07,03,03,47,14.60
2006,07,03,03,48,14.60
2006,07,03,03,49,14.60
2006,07,03,03,50,14.60
2006,07,03,03,51,14.50
2006,07,03,03,52,14.50
2006,07,03,03,53,14.50
2006,07,03,03,54,14.50
2006,07,03,03,55,14.50
2006,07,03,03,56,14.50
2006,07,03,03,57,14.50
2006,07,03,03,58,14.40
2006,07,03,03,59,14.40
2006,07,03,04,00,14.40
2006,07,03,04,01,14.40
2006,07,03,04,02,14.40
2006,07,03,04,03,14.40
2006,07,03,04,04,14.40
2006,07,03,04,05,14.40
2006,07,03,04,06,14.40
2006,07,03,04,07,14.30
2006,07,03,04,08,14.30
2006,07,03,04,09,14.30
2006,07,03,04,10,14.30
2006,07,03,04,11,14.30
2006,07,03,04,12,14.30
2006,07,03,04,13,14.20
2006,07,03,04,14,14.20
2006,07,03,04,15,14.20
2006,07,03,04,16,14.20
2006,07,03,04,17,14.20
2006,07,03,04,18,14.20
2006,07,03,04,19,14.20
2006,07,03,04,20,14.20
2006,07,03,04,21,14.20
2006,07,03,04,22,14.20
2006,07,03,04,23,14.20
2006,07,03,04,24,14.20
2006,07,03,04,25,14.10
2006,07,03,04,26,14.10
2006,07,03,04,27,14.10
2006,07,03,04,28,14.10
2006,07,03,04,29,14.10
2006,07,03,04,30,14.10
2006,07,03,04,31,14.10
2006,07,03,04,32,14.00
2006,07,03,04,33,14.00
2006,07,03,04,34,14.00
2006,07,03,04,35,14.00
2006,07,03,04,36,14.00
2006,07,03,04,37,14.00
2006,07,03,04,38,14.00
2006,07,03,04,39,14.00
2006,07,03,04,40,14.00
2006,07,03,04,41,14.00
2006,07,03,04,42,13.90
2006,07,03,04,43,13.90
2006,07,03,04,44,13.90
2006,07,03,04,45,13.90
2006,07,03,04,46,13.90
2006,07,03,04,47,14.00
2006,07,03,04,48,14.00
2006,07,03,04,49,13.90
2006,07,03,04,50,13.90
2006,07,03,04,51,13.90
2006,07,03,04,52,13.90
2006,07,03,04,53,13.90
2006,07,03,04,54,13.90
2006,07,03,04,55,13.90
2006,07,03,04,56,13.90
2006,07,03,04,57,13.90
2006,07,03,04,58,13.90
2006,07,03,04,59,13.90
2006,07,03,05,00,13.90
2006,07,03,05,01,13.90
2006,07,03,05,02,13.90
2006,07,03,05,03,13.90
2006,07,03,05,04,13.90
2006,07,03,05,05,13.90
2006,07,03,05,06,13.90
2006,07,03,05,07,13.90
2006,07,03,05,08,13.90
2006,07,03,05,09,13.90
2006,07,03,05,10,13.90
2006,07,03,05,11,13.90
2006,07,03,05,12,13.90
2006,07,03,05,13,13.80
2006,07,03,05,14,13.80
2006,07,03,05,15,13.80
2006,07,03,05,16,13.80
2006,07,03,05,17,13.80
2006,07,03,05,18,13.80
2006,07,03,05,19,13.80
2006,07,03,05,20,13.70
2006,07,03,05,21,13.70
2006,07,03,05,22,13.70
2006,07,03,05,23,13.70
2006,07,03,05,24,13.70
2006,07,03,05,25,13.70
2006,07,03,05,26,13.70
2006,07,03,05,27,13.70
2006,07,03,05,28,13.70
2006,07,03,05,29,13.70
2006,07,03,05,30,13.70
2006,07,03,05,31,13.70
2006,07,03,05,32,13.60
2006,07,03,05,33,13.60
2006,07,03,05,34,13.60
2006,07,03,05,35,13.60
2006,07,03,05,36,13.60
2006,07,03,05,37,13.60
2006,07,03,05,38,13.60
2006,07,03,05,39,13.60
2006,07,03,05,40,13.60
2006,07,03,05,41,13.60
2006,07,03,05,42,13.60
2006,07,03,05,43,13.60
2006,07,03,05,44,13.60
2006,07,03,05,45,13.60
2006,07,03,05,46,13.60
2006,07,03,05,47,13.60
2006,07,03,05,48,13.60
2006,07,03,05,49,13.60
2006,07,03,05,50,13.60
2006,07,03,05,51,13.60
2006,07,03,05,52,13.60
2006,07,03,05,53,13.60
2006,07,03,05,54,13.50
2006,07,03,05,55,13.50
2006,07,03,05,56,13.50
2006,07,03,05,57,13.50
2006,07,03,05,58,13.50
2006,07,03,05,59,13.50
2006,07,03,06,00,13.60
2006,07,03,06,01,13.60
2006,07,03,06,02,13.60
2006,07,03,06,03,13.60
2006,07,03,06,04,13.60
2006,07,03,06,05,13.60
2006,07,03,06,06,13.60
2006,07,03,06,07,13.60
2006,07,03,06,08,13.60
2006,07,03,06,09,13.60
2006,07,03,06,10,13.70
2006,07,03,06,11,13.70
2006,07,03,06,12,13.70
2006,07,03,06,13,13.70
2006,07,03,06,14,13.70
2006,07,03,06,15,13.70
2006,07,03,06,16,13.70
2006,07,03,06,17,13.70
2006,07,03,06,18,13.70
2006,07,03,06,19,13.70
2006,07,03,06,20,13.70
2006,07,03,06,21,13.70
2006,07,03,06,22,13.70
2006,07,03,06,23,13.70
2006,07,03,06,24,13.70
2006,07,03,06,25,13.70
2006,07,03,06,26,13.70
2006,07,03,06,27,13.70
2006,07,03,06,28,13.70
2006,07,03,06,29,13.70
2006,07,03,06,30,13.70
2006,07,03,06,31,13.70
2006,07,03,06,32,13.70
2006,07,03,06,33,13.80
2006,07,03,06,34,13.80
2006,07,03,06,35,13.80
2006,07,03,06,36,13.80
2006,07,03,06,37,13.80
2006,07,03,06,38,13.80
2006,07,03,06,39,13.80
2006,07,03,06,40,13.90
2006,07,03,06,41,13.90
2006,07,03,06,42,13.90
2006,07,03,06,43,13.90
2006,07,03,06,44,14.00
2006,07,03,06,45,14.00
2006,07,03,06,46,14.00
2006,07,03,06,47,14.00
2006,07,03,06,48,14.00
2006,07,03,06,49,14.10
2006,07,03,06,50,14.10
2006,07,03,06,51,14.10
2006,07,03,06,52,14.20
2006,07,03,06,53,14.20
2006,07,03,06,54,14.20
2006,07,03,06,55,14.20
2006,07,03,06,56,14.20
2006,07,03,06,57,14.20
2006,07,03,06,58,14.30
2006,07,03,06,59,14.40
2006,07,03,07,00,14.50
2006,07,03,07,01,14.50
2006,07,03,07,02,14.60
2006,07,03,07,03,14.60
2006,07,03,07,04,14.60
2006,07,03,07,05,14.60
2006,07,03,07,06,14.50
2006,07,03,07,07,14.50
2006,07,03,07,08,14.50
2006,07,03,07,09,14.50
2006,07,03,07,10,14.50
2006,07,03,07,11,14.50
2006,07,03,07,12,14.50
2006,07,03,07,13,14.50
2006,07,03,07,14,14.50
2006,07,03,07,15,14.50
2006,07,03,07,16,14.50
2006,07,03,07,17,14.50
2006,07,03,07,18,14.50
2006,07,03,07,19,14.50
2006,07,03,07,20,14.50
2006,07,03,07,21,14.60
2006,07,03,07,22,14.60
2006,07,03,07,23,14.60
2006,07,03,07,24,14.60
2006,07,03,07,25,14.70
2006,07,03,07,26,14.80
2006,07,03,07,27,14.80
2006,07,03,07,28,14.80
2006,07,03,07,29,14.80
2006,07,03,07,30,14.90
2006,07,03,07,31,14.90
2006,07,03,07,32,15.00
2006,07,03,07,33,15.00
2006,07,03,07,34,15.00
2006,07,03,07,35,15.10
2006,07,03,07,36,15.10
2006,07,03,07,37,15.10
2006,07,03,07,38,15.20
2006,07,03,07,39,15.30
2006,07,03,07,40,15.30
2006,07,03,07,41,15.30
2006,07,03,07,42,15.40
2006,07,03,07,43,15.40
2006,07,03,07,44,15.50
2006,07,03,07,45,15.50
2006,07,03,07,46,15.60
2006,07,03,07,47,15.60
2006,07,03,07,48,15.70
2006,07,03,07,49,15.80
2006,07,03,07,50,15.80
2006,07,03,07,51,15.80
2006,07,03,07,52,15.90
2006,07,03,07,53,16.00
2006,07,03,07,54,16.20
2006,07,03,07,55,16.20
2006,07,03,07,56,16.30
2006,07,03,07,57,16.40
2006,07,03,07,58,16.60
2006,07,03,07,59,16.70
2006,07,03,08,00,16.90
2006,07,03,08,01,17.00
2006,07,03,08,02,17.10
2006,07,03,08,03,17.30
2006,07,03,08,04,17.40
2006,07,03,08,05,17.50
2006,07,03,08,06,17.60
2006,07,03,08,07,17.70
2006,07,03,08,08,17.80
2006,07,03,08,09,17.80
2006,07,03,08,10,17.90
2006,07,03,08,11,18.00
2006,07,03,08,12,18.10
2006,07,03,08,13,18.20
2006,07,03,08,14,18.30
2006,07,03,08,15,18.40
2006,07,03,08,16,18.50
2006,07,03,08,17,18.50
2006,07,03,08,18,18.60
2006,07,03,08,19,18.60
2006,07,03,08,20,18.60
2006,07,03,08,21,18.60
2006,07,03,08,22,18.60
2006,07,03,08,23,18.70
2006,07,03,08,24,18.90
2006,07,03,08,25,18.90
2006,07,03,08,26,19.00
2006,07,03,08,27,19.10
2006,07,03,08,28,19.20
2006,07,03,08,29,19.20
2006,07,03,08,30,19.30
2006,07,03,08,31,19.40
2006,07,03,08,32,19.50
2006,07,03,08,33,19.60
2006,07,03,08,34,19.70
2006,07,03,08,35,19.70
2006,07,03,08,36,19.80
2006,07,03,08,37,19.90
2006,07,03,08,38,19.90
2006,07,03,08,39,19.80
2006,07,03,08,40,19.80
2006,07,03,08,41,19.80
2006,07,03,08,42,19.80
2006,07,03,08,43,19.90
2006,07,03,08,44,19.90
2006,07,03,08,45,20.00
2006,07,03,08,46,20.10
2006,07,03,08,47,20.20
2006,07,03,08,48,20.20
2006,07,03,08,49,20.30
2006,07,03,08,50,20.30
2006,07,03,08,51,20.30
2006,07,03,08,52,20.20
2006,07,03,08,53,20.20
2006,07,03,08,54,20.20
2006,07,03,08,55,20.20
2006,07,03,08,56,20.20
2006,07,03,08,57,20.20
2006,07,03,08,58,20.10
2006,07,03,08,59,20.10
2006,07,03,09,00,20.10
2006,07,03,09,01,20.20
2006,07,03,09,02,20.20
2006,07,03,09,03,20.20
2006,07,03,09,04,20.20
2006,07,03,09,05,20.30
2006,07,03,09,06,20.30
2006,07,03,09,07,20.30
2006,07,03,09,08,20.30
2006,07,03,09,09,20.20
2006,07,03,09,10,20.20
2006,07,03,09,11,20.10
2006,07,03,09,12,20.10
2006,07,03,09,13,20.00
2006,07,03,09,14,19.90
2006,07,03,09,15,19.90
2006,07,03,09,16,19.90
2006,07,03,09,17,20.10
2006,07,03,09,18,20.10
2006,07,03,09,19,20.20
2006,07,03,09,20,20.30
2006,07,03,09,21,20.40
2006,07,03,09,22,20.40
2006,07,03,09,23,20.50
2006,07,03,09,24,20.50
2006,07,03,09,25,20.60
2006,07,03,09,26,20.60
2006,07,03,09,27,20.70
2006,07,03,09,28,20.70
2006,07,03,09,29,20.80
2006,07,03,09,30,20.90
2006,07,03,09,31,21.00
2006,07,03,09,32,21.00
2006,07,03,09,33,20.90
2006,07,03,09,34,20.80
2006,07,03,09,35,20.80
2006,07,03,09,36,20.70
2006,07,03,09,37,20.70
2006,07,03,09,38,20.70
2006,07,03,09,39,20.70
2006,07,03,09,40,20.70
2006,07,03,09,41,20.70
2006,07,03,09,42,20.80
2006,07,03,09,43,20.80
2006,07,03,09,44,20.80
2006,07,03,09,45,20.80
2006,07,03,09,46,20.70
2006,07,03,09,47,20.60
2006,07,03,09,48,20.60
2006,07,03,09,49,20.60
2006,07,03,09,50,20.70
2006,07,03,09,51,20.70
2006,07,03,09,52,20.70
2006,07,03,09,53,20.70
2006,07,03,09,54,20.70
2006,07,03,09,55,20.80
2006,07,03,09,56,20.80
2006,07,03,09,57,20.90
2006,07,03,09,58,21.00
2006,07,03,09,59,21.00
2006,07,03,10,00,21.10
2006,07,03,10,01,21.20
2006,07,03,10,02,21.30
2006,07,03,10,03,21.50
2006,07,03,10,04,21.60
2006,07,03,10,05,21.60
2006,07,03,10,06,21.60
2006,07,03,10,07,21.60
2006,07,03,10,08,21.60
2006,07,03,10,09,21.60
2006,07,03,10,10,21.60
2006,07,03,10,11,21.60
2006,07,03,10,12,21.60
2006,07,03,10,13,21.60
2006,07,03,10,14,21.60
2006,07,03,10,15,21.60
2006,07,03,10,16,21.60
2006,07,03,10,17,21.60
2006,07,03,10,18,21.70
2006,07,03,10,19,21.70
2006,07,03,10,20,21.80
2006,07,03,10,21,21.80
2006,07,03,10,22,21.80
2006,07,03,10,23,21.60
2006,07,03,10,24,21.60
2006,07,03,10,25,21.50
2006,07,03,10,26,21.30
2006,07,03,10,27,21.30
2006,07,03,10,28,21.30
2006,07,03,10,29,21.30
2006,07,03,10,30,21.40
2006,07,03,10,31,21.50
2006,07,03,10,32,21.60
2006,07,03,10,33,21.60
2006,07,03,10,34,21.50
2006,07,03,10,35,21.30
2006,07,03,10,36,21.30
2006,07,03,10,37,21.30
2006,07,03,10,38,21.20
2006,07,03,10,39,21.00
2006,07,03,10,40,21.00
2006,07,03,10,41,21.00
2006,07,03,10,42,20.90
2006,07,03,10,43,20.80
2006,07,03,10,44,20.70
2006,07,03,10,45,20.70
2006,07,03,10,46,20.70
2006,07,03,10,47,20.70
2006,07,03,10,48,20.70
2006,07,03,10,49,20.80
2006,07,03,10,50,20.90
2006,07,03,10,51,21.00
2006,07,03,10,52,21.20
2006,07,03,10,53,21.30
2006,07,03,10,54,21.50
2006,07,03,10,55,21.60
2006,07,03,10,56,21.80
2006,07,03,10,57,21.90
2006,07,03,10,58,22.00
2006,07,03,10,59,22.20
2006,07,03,11,00,22.30
2006,07,03,11,01,22.50
2006,07,03,11,02,22.60
2006,07,03,11,03,22.70
2006,07,03,11,04,22.80
2006,07,03,11,05,22.90
2006,07,03,11,06,22.90
2006,07,03,11,07,23.10
2006,07,03,11,08,23.10
2006,07,03,11,09,23.10
2006,07,03,11,10,22.90
2006,07,03,11,11,22.80
2006,07,03,11,12,22.70
2006,07,03,11,13,22.60
2006,07,03,11,14,22.60
2006,07,03,11,15,22.70
2006,07,03,11,16,22.70
2006,07,03,11,17,22.70
2006,07,03,11,18,22.60
2006,07,03,11,19,22.60
2006,07,03,11,20,22.50
2006,07,03,11,21,22.40
2006,07,03,11,22,22.20
2006,07,03,11,23,22.10
2006,07,03,11,24,22.10
2006,07,03,11,25,22.20
2006,07,03,11,26,22.30
2006,07,03,11,27,22.40
2006,07,03,11,28,22.50
2006,07,03,11,29,22.60
2006,07,03,11,30,22.70
2006,07,03,11,31,22.80
2006,07,03,11,32,22.80
2006,07,03,11,33,22.80
2006,07,03,11,34,22.80
2006,07,03,11,35,22.80
2006,07,03,11,36,22.90
2006,07,03,11,37,22.90
2006,07,03,11,38,23.00
2006,07,03,11,39,23.10
2006,07,03,11,40,23.20
2006,07,03,11,41,23.20
2006,07,03,11,42,23.20
2006,07,03,11,43,23.30
2006,07,03,11,44,23.40
2006,07,03,11,45,23.60
2006,07,03,11,46,23.70
2006,07,03,11,47,23.80
2006,07,03,11,48,23.90
2006,07,03,11,49,24.00
2006,07,03,11,50,24.10
2006,07,03,11,51,24.20
2006,07,03,11,52,24.20
2006,07,03,11,53,24.30
2006,07,03,11,54,24.40
2006,07,03,11,55,24.50
2006,07,03,11,56,24.50
2006,07,03,11,57,24.50
2006,07,03,11,58,24.50
2006,07,03,11,59,24.50
2006,07,03,12,00,24.40
2006,07,03,12,01,24.40
2006,07,03,12,02,24.30
2006,07,03,12,03,24.10
2006,07,03,12,04,24.10
2006,07,03,12,05,24.10
2006,07,03,12,06,24.00
2006,07,03,12,07,23.90
2006,07,03,12,08,23.80
2006,07,03,12,09,23.70
2006,07,03,12,10,23.60
2006,07,03,12,11,23.60
2006,07,03,12,12,23.50
2006,07,03,12,13,23.40
2006,07,03,12,14,23.40
2006,07,03,12,15,23.40
2006,07,03,12,16,23.40
2006,07,03,12,17,23.30
2006,07,03,12,18,23.30
2006,07,03,12,19,23.30
2006,07,03,12,20,23.40
2006,07,03,12,21,23.40
2006,07,03,12,22,23.50
2006,07,03,12,23,23.60
2006,07,03,12,24,23.60
2006,07,03,12,25,23.70
2006,07,03,12,26,23.70
2006,07,03,12,27,23.80
2006,07,03,12,28,23.90
2006,07,03,12,29,23.90
2006,07,03,12,30,23.90
2006,07,03,12,31,23.90
2006,07,03,12,32,23.90
2006,07,03,12,33,23.90
2006,07,03,12,34,23.90
2006,07,03,12,35,23.80
2006,07,03,12,36,23.80
2006,07,03,12,37,23.80
2006,07,03,12,38,23.80
2006,07,03,12,39,23.80
2006,07,03,12,40,23.80
2006,07,03,12,41,23.80
2006,07,03,12,42,23.80
2006,07,03,12,43,23.90
2006,07,03,12,44,24.00
2006,07,03,12,45,24.10
2006,07,03,12,46,24.10
2006,07,03,12,47,24.10
2006,07,03,12,48,24.10
2006,07,03,12,49,24.10
2006,07,03,12,50,24.10
2006,07,03,12,51,24.10
2006,07,03,12,52,24.20
2006,07,03,12,53,24.30
2006,07,03,12,54,24.30
2006,07,03,12,55,24.30
2006,07,03,12,56,24.30
2006,07,03,12,57,24.30
2006,07,03,12,58,24.20
2006,07,03,12,59,24.10
2006,07,03,13,00,24.10
2006,07,03,13,01,24.20
2006,07,03,13,02,24.30
2006,07,03,13,03,24.30
2006,07,03,13,04,24.20
2006,07,03,13,05,24.20
2006,07,03,13,06,24.20
2006,07,03,13,07,24.20
2006,07,03,13,08,24.20
2006,07,03,13,09,24.10
2006,07,03,13,10,24.10
2006,07,03,13,11,24.10
2006,07,03,13,12,24.10
2006,07,03,13,13,24.10
2006,07,03,13,14,24.10
2006,07,03,13,15,24.10
2006,07,03,13,16,24.10
2006,07,03,13,17,24.10
2006,07,03,13,18,24.10
2006,07,03,13,19,24.10
2006,07,03,13,20,24.10
2006,07,03,13,21,24.10
2006,07,03,13,22,24.10
2006,07,03,13,39,24.40
2006,07,03,13,40,24.40
2006,07,03,13,41,24.50
2006,07,03,13,42,24.50
2006,07,03,13,43,24.70
2006,07,03,13,44,24.80
2006,07,03,13,45,24.80
2006,07,03,13,46,24.70
2006,07,03,13,47,24.70
2006,07,03,13,48,24.60
2006,07,03,13,49,24.70
2006,07,03,13,50,24.70
2006,07,03,13,51,24.70
2006,07,03,13,52,24.70
2006,07,03,13,53,24.80
2006,07,03,13,54,24.80
2006,07,03,13,55,24.70
2006,07,03,13,56,24.70
2006,07,03,13,57,24.70
2006,07,03,13,58,24.70
2006,07,03,13,59,24.80
2006,07,03,14,00,24.90
2006,07,03,14,01,24.90
2006,07,03,14,02,25.00
2006,07,03,14,03,25.20
2006,07,03,14,04,25.30
2006,07,03,14,05,25.30
2006,07,03,14,06,25.30
2006,07,03,14,07,25.30
2006,07,03,14,08,25.30
2006,07,03,14,09,25.20
2006,07,03,14,10,25.20
2006,07,03,14,11,25.20
2006,07,03,14,12,25.30
2006,07,03,14,13,25.30
2006,07,03,14,14,25.30
2006,07,03,14,15,25.40
2006,07,03,14,16,25.40
2006,07,03,14,17,25.40
2006,07,03,14,18,25.40
2006,07,03,14,19,25.40
2006,07,03,14,20,25.40
2006,07,03,14,21,25.40
2006,07,03,14,22,25.50
2006,07,03,14,23,25.50
2006,07,03,14,24,25.50
2006,07,03,14,25,25.60
2006,07,03,14,26,25.60
2006,07,03,14,27,25.80
2006,07,03,14,28,25.90
2006,07,03,14,29,26.00
2006,07,03,14,30,26.00
2006,07,03,14,31,26.10
2006,07,03,14,32,26.10
2006,07,03,14,33,26.00
2006,07,03,14,34,26.00
2006,07,03,14,35,26.00
2006,07,03,14,36,25.90
2006,07,03,14,37,25.80
2006,07,03,14,38,25.70
2006,07,03,14,39,25.60
2006,07,03,14,40,25.50
2006,07,03,14,41,25.40
2006,07,03,14,42,25.40
2006,07,03,14,43,25.40
2006,07,03,14,44,25.40
2006,07,03,14,45,25.40
2006,07,03,14,46,25.40
2006,07,03,14,47,25.40
2006,07,03,14,48,25.40
2006,07,03,14,49,25.50
2006,07,03,14,50,25.60
2006,07,03,14,51,25.80
2006,07,03,14,52,25.90
2006,07,03,14,53,25.90
2006,07,03,14,54,26.00
2006,07,03,14,55,26.10
2006,07,03,14,56,26.10
2006,07,03,14,57,26.10
2006,07,03,14,58,26.10
2006,07,03,14,59,26.00
2006,07,03,15,00,26.10
2006,07,03,15,01,26.10
2006,07,03,15,02,26.10
2006,07,03,15,03,26.10
2006,07,03,15,04,26.10
2006,07,03,15,05,26.10
2006,07,03,15,06,26.20
2006,07,03,15,07,26.20
2006,07,03,15,08,26.30
2006,07,03,15,09,26.30
2006,07,03,15,10,26.30
2006,07,03,15,11,26.30
2006,07,03,15,12,26.30
2006,07,03,15,13,26.40
2006,07,03,15,14,26.60
2006,07,03,15,15,26.60
2006,07,03,15,16,26.60
2006,07,03,15,17,26.60
2006,07,03,15,18,26.60
2006,07,03,15,19,26.50
2006,07,03,15,20,26.40
2006,07,03,15,21,26.40
2006,07,03,15,22,26.30
2006,07,03,15,23,26.30
2006,07,03,15,24,26.30
2006,07,03,15,25,26.30
2006,07,03,15,26,26.20
2006,07,03,15,27,26.20
2006,07,03,15,28,26.20
2006,07,03,15,29,26.10
2006,07,03,15,30,26.10
2006,07,03,15,31,26.20
2006,07,03,15,32,26.20
2006,07,03,15,33,26.10
2006,07,03,15,34,26.20
2006,07,03,15,35,26.20
2006,07,03,15,36,26.20
2006,07,03,15,37,26.30
2006,07,03,15,38,26.30
2006,07,03,15,39,26.40
2006,07,03,15,40,26.60
2006,07,03,15,41,26.60
2006,07,03,15,42,26.60
2006,07,03,15,43,26.60
2006,07,03,15,44,26.60
2006,07,03,15,45,26.70
2006,07,03,15,46,26.70
2006,07,03,15,47,26.80
2006,07,03,15,48,26.80
2006,07,03,15,49,26.70
2006,07,03,15,50,26.80
2006,07,03,15,51,26.80
2006,07,03,15,52,26.80
2006,07,03,15,53,26.80
2006,07,03,15,54,26.90
2006,07,03,15,55,27.00
2006,07,03,15,56,26.90
2006,07,03,15,57,27.10
2006,07,03,15,58,27.10
2006,07,03,15,59,27.10
2006,07,03,16,00,27.10
2006,07,03,16,01,27.10
2006,07,03,16,02,26.90
2006,07,03,16,03,26.80
2006,07,03,16,04,26.80
2006,07,03,16,05,26.70
2006,07,03,16,06,26.70
2006,07,03,16,07,26.70
2006,07,03,16,08,26.70
2006,07,03,16,09,26.80
2006,07,03,16,10,26.80
2006,07,03,16,11,26.90
2006,07,03,16,12,27.00
2006,07,03,16,13,27.20
2006,07,03,16,14,27.30
2006,07,03,16,15,27.40
2006,07,03,16,16,27.40
2006,07,03,16,17,27.50
2006,07,03,16,18,27.60
2006,07,03,16,19,27.60
2006,07,03,16,20,27.50
2006,07,03,16,21,27.40
2006,07,03,16,22,27.30
2006,07,03,16,23,27.30
2006,07,03,16,24,27.30
2006,07,03,16,25,27.30
2006,07,03,16,26,27.40
2006,07,03,16,27,27.40
2006,07,03,16,28,27.40
2006,07,03,16,29,27.50
2006,07,03,16,30,27.60
2006,07,03,16,31,27.60
2006,07,03,16,32,27.60
2006,07,03,16,33,27.60
2006,07,03,16,34,27.60
2006,07,03,16,35,27.60
2006,07,03,16,36,27.50
2006,07,03,16,37,27.30
2006,07,03,16,38,27.20
2006,07,03,16,39,27.10
2006,07,03,16,40,27.00
2006,07,03,16,41,26.90
2006,07,03,16,42,26.90
2006,07,03,16,43,26.80
2006,07,03,16,44,26.80
2006,07,03,16,45,26.80
2006,07,03,16,46,26.80
2006,07,03,16,47,26.90
2006,07,03,16,48,26.90
2006,07,03,16,49,26.90
2006,07,03,16,50,27.00
2006,07,03,16,51,27.10
2006,07,03,16,52,27.10
2006,07,03,16,53,27.10
2006,07,03,16,54,27.10
2006,07,03,16,55,27.10
2006,07,03,16,56,27.00
2006,07,03,16,57,26.90
2006,07,03,16,58,26.80
2006,07,03,16,59,26.80
2006,07,03,17,00,26.70
2006,07,03,17,01,26.70
2006,07,03,17,02,26.60
2006,07,03,17,03,26.60
2006,07,03,17,04,26.60
2006,07,03,17,05,26.60
2006,07,03,17,06,26.50
2006,07,03,17,07,26.40
2006,07,03,17,08,26.40
2006,07,03,17,09,26.30
2006,07,03,17,10,26.30
2006,07,03,17,11,26.30
2006,07,03,17,12,26.20
2006,07,03,17,13,26.10
2006,07,03,17,14,26.20
2006,07,03,17,15,26.20
2006,07,03,17,16,26.20
2006,07,03,17,17,26.20
2006,07,03,17,18,26.20
2006,07,03,17,19,26.10
2006,07,03,17,20,25.90
2006,07,03,17,21,25.80
2006,07,03,17,22,25.80
2006,07,03,17,23,25.80
2006,07,03,17,24,25.70
2006,07,03,17,25,25.70
2006,07,03,17,26,25.60
2006,07,03,17,27,25.50
2006,07,03,17,28,25.40
2006,07,03,17,29,25.40
2006,07,03,17,30,25.50
2006,07,03,17,31,25.50
2006,07,03,17,32,25.50
2006,07,03,17,33,25.50
2006,07,03,17,34,25.60
2006,07,03,17,35,25.60